DECAYED

STARLINK-1849, 47137 (Decayed)

Orbit data source: Space-Track

STARLINK-1849, 47137 was a payload satellite owned by SpaceX/Seattle (US) in LEO that was launched on Wed, 25 Nov 2020 UTC via an FALCON 9 launch vehicle from the Air Force Eastern Test Range (AFETR). Payload-class satellites include a variety of spacecraft equipped with specific instruments for various scientific and technological missions. These include communications satellites like Starlink; space stations such as the ISS; scientific satellites like the Hubble; Earth observation satellites from companies like Planet Labs, Umbra, and HawkEye 360; GPS; miniature CubeSats for education and research; and military/defense satellites.

Not visible in the next 10 days
Identifier
47137, 2020-088R
Orbit
Decayed
Country
Flag of USUS
Related business
Manufacturer
SpaceX/Seattle
Mission
Decayed Commercial Communications
Bus & Motor
STARLINK, Unknown motor
Mass
260 kg wet, ~248 kg dry
Launch date (UTC)
2020-11-25 (6 years ago)
Launch vehicle
FALCON 9
Launch site
Air Force Eastern Test Range (AFETR)
Object type
Payload
Rocket body
Debris
Shape & HBR
Box + 1 Pan, 10.1 m
Radar Cross Section
13.562 m², Large (>1 m²)

Expand to show TLE details & history
Last TLE update: 1 year ago

TLE from 1 year ago
0 STARLINK-1849
1 47137U 20088R   25154.17920830  .05300904  12040-4  11653-2 0  9997
2 47137  53.0290  61.9765 0006829 231.7339 246.8390 16.29635817250760
Epoch: 2025-06-03T04:18Z
TLE epoch observation values (Epoch: 2025-06-03T04:18:03.597Z)
Latitude
44.74339°
Longitude
-122.30133°
Altitude
199.868 km
Speed
7.791 km/s
True Right ascension
12h 56m 22s
True Declination
44° 33' 25"
Sunlit
Object was in daylight at epoch
Visualization orbit readout
Latitude
Unknown
Longitude
Unknown
Altitude
Unknown
Speed
Unknown
Apparent Right ascension
Unknown
Apparent Declination
Unknown
Sunlit
N/A
Visualization observer readout
Local Sidereal Time
21:28:46
Azimuth
Unknown
Elevation
Unknown
Doppler factor
Unknown
Orbital elements
Apogee altitude
198.296 km
Perigee altitude
189.32 km
Semi-major axis
6,571.945 km
Eccentricity
0.00068
Inclination
53.029°
RAAN
61.9765°
Arg. of periapsis
231.7339°
True anomaly
246.76708°
Mean anomaly
246.839°
Eccentric anomaly
246.80304°
Mean motion
4.07382 °/min
Orbital period
88.37 mins
BSTAR
0.0011653
Loading maneuver chart data...
Computing Atmospheric mass density...

Documentation

Showing up to 5 results
|